Location: Newark
(33.6439°N, 114.9881°W)
Time: 02:31:58
(UTC+00:00)

Tiros 1 - Pass Details

Date: 26 July 2019
Orbit: 630 x 664 km, 48.4° (Epoch: 21 August)

Event Time Altitude Azimuth Distance (km) Brightness Sun altitude
Rises 17:45:58 0° 247° (WSW) 2,963 10.3 59.7°
Reaches altitude 10° 17:48:22 10° 254° (WSW) 2,059 9.6 60.1°
Maximum altitude 17:52:56 45° 327° (NNW) 891 8.2 61.0°
Drops below altitude 10° 17:57:34 10° 41° (NE) 2,079 10.0 61.9°
Sets 18:00:00 0° 48° (NE) 2,995 10.7 62.4°
